Date String (YYYY-MM-DD hh:mm:ss) UTC,Instrument flags,absolute air pressure of the measurement (hPa),sample flow rate (lpm),inlet stack bypass flow (lpm),air temperature of the measurement (°C),ambient temperature measured by the external sensor (°C),aerosol sample conditioner tube jacket temperature (°C),OPC LED temperature (°C),internal box temperature (°C),relative humidity of the measurement (%),span deviation,mass concentration of particles derived from Lorenz-Mie calculation of OPC scattering (μg/m³),mass concentration of particles derived from Lorenz-Mie calculation of OPC scattering (μg/m³),mass concentration of particles derived from Lorenz-Mie calculation of OPC scattering (μg/m³)
DateTimeUTC,F1_M11,P_M11,Q1_M11,Q2_M11,T1_M11,T2_M11,T3_M11,T4_M11,T5_M11,U1_M11,ZSPAN_M11,X2_M11,X0_M11,X1_M11
2023-07-23 19:00:00,SystemResetWarning,0833.4,5.01,000.00,028.6,025.2,000.0,036.8,030.0,22.3,0000.0,0005.12,0009.85,0004.70
2023-07-23 19:01:00,SystemResetWarning,0833.4,4.99,000.00,028.6,025.6,000.0,036.9,030.0,22.6,0000.0,0005.13,0009.63,0004.73
2023-07-23 19:02:00,SystemResetWarning,0833.4,5.00,000.00,028.6,026.1,000.0,036.9,030.1,22.5,0000.0,0005.16,0009.66,0004.76
2023-07-23 19:03:00,SystemResetWarning,0833.4,5.00,000.00,028.6,026.5,000.0,036.9,030.2,24.2,0000.0,0005.18,0009.63,0004.77
2023-07-23 19:04:00,SystemResetWarning,0833.4,5.01,000.00,028.6,026.9,000.0,036.9,030.2,25.4,0000.0,0005.15,0009.57,0004.74
2023-07-23 19:05:00,SystemResetWarning,0833.4,5.00,000.00,028.7,027.2,000.0,037.0,030.3,24.7,0000.0,0005.12,0009.72,0004.70
2023-07-23 19:06:00,SystemResetWarning,0833.4,4.98,000.00,028.7,026.3,000.0,036.9,030.3,27.9,0000.0,0005.10,0009.87,0004.69
2023-07-23 19:07:00,SystemResetWarning,0833.4,5.02,000.00,028.6,025.0,000.0,036.8,030.1,23.5,0000.0,0005.12,0009.86,0004.69
2023-07-23 19:08:00,SystemResetWarning,0833.4,5.01,000.00,028.6,025.0,000.0,036.7,030.0,22.7,0000.0,0005.10,0009.82,0004.69
2023-07-23 19:09:00,SystemResetWarning,0833.4,5.00,000.00,028.5,025.4,000.0,036.8,029.9,23.1,0000.0,0005.08,0009.74,0004.68
2023-07-23 19:10:00,SystemResetWarning,0833.4,5.00,000.00,028.5,025.8,000.0,036.8,030.0,23.9,0000.0,0005.05,0009.22,0004.65
2023-07-23 19:11:00,SystemResetWarning,0833.4,5.00,000.00,028.6,026.3,000.0,036.8,030.1,22.5,0000.0,0005.05,0008.76,0004.64
2023-07-23 19:12:00,SystemResetWarning,0833.4,4.99,000.00,028.6,026.7,000.0,036.9,030.2,20.3,0000.0,0005.06,0008.69,0004.63
2023-07-23 19:13:00,SystemResetWarning,0833.4,5.00,000.00,028.6,027.0,000.0,036.9,030.3,20.1,0000.0,0005.02,0008.64,0004.61
2023-07-23 19:14:00,SystemResetWarning,0833.4,5.00,000.00,028.7,027.0,000.0,036.9,030.3,21.5,0000.0,0005.00,0008.71,0004.59
2023-07-23 19:15:00,SystemResetWarning,0833.4,5.00,000.00,028.7,025.6,000.0,036.8,030.2,21.4,0000.0,0005.01,0008.75,0004.59
2023-07-23 19:16:00,SystemResetWarning,0833.4,5.01,000.00,028.6,024.8,000.0,036.7,030.1,19.5,0000.0,0004.98,0008.82,0004.59
2023-07-23 19:17:00,SystemResetWarning,0833.4,5.01,000.00,028.6,025.2,000.0,036.7,030.0,19.6,0000.0,0004.99,0009.53,0004.59
2023-07-23 19:18:00,SystemResetWarning,0833.4,4.99,000.00,028.5,025.6,000.0,036.8,029.9,20.5,0000.0,0004.99,0010.07,0004.57
2023-07-23 19:19:00,SystemResetWarning,0833.4,5.00,000.00,028.5,026.0,000.0,036.8,030.0,20.6,0000.0,0005.02,0010.11,0004.57
2023-07-23 19:20:00,SystemResetWarning,0833.4,5.01,000.00,028.5,026.5,000.0,036.8,030.1,19.7,0000.0,0005.05,0010.25,0004.60
2023-07-23 19:21:00,SystemResetWarning,0833.4,5.01,000.00,028.6,026.9,000.0,036.9,030.2,20.8,0000.0,0005.07,0010.35,0004.64
2023-07-23 19:22:00,SystemResetWarning,0833.4,4.99,000.00,028.6,026.9,000.0,036.8,030.3,20.4,0000.0,0005.10,0009.88,0004.69
2023-07-23 19:23:00,SystemResetWarning,0833.4,4.99,000.00,028.6,025.5,000.0,036.8,030.1,21.4,0000.0,0005.14,0009.87,0004.72
2023-07-23 19:24:00,SystemResetWarning,0833.4,5.01,000.00,028.5,024.8,000.0,036.7,029.9,22.0,0000.0,0005.21,0009.97,0004.76
2023-07-23 19:25:00,SystemResetWarning,0833.3,5.01,000.00,028.5,025.1,000.0,036.7,029.9,22.8,0000.0,0005.25,0010.72,0004.80
2023-07-23 19:26:00,SystemResetWarning,0833.3,4.99,000.00,028.4,025.5,000.0,036.7,029.8,24.6,0000.0,0005.26,0011.22,0004.84
2023-07-23 19:27:00,SystemResetWarning,0833.3,4.99,000.00,028.5,026.0,000.0,036.7,029.9,22.6,0000.0,0005.33,0011.58,0004.87
2023-07-23 19:28:00,SystemResetWarning,0833.4,5.00,000.00,028.5,026.4,000.0,036.8,030.0,23.7,0000.0,0005.37,0011.00,0004.90
2023-07-23 19:29:00,SystemResetWarning,0833.4,5.01,000.00,028.5,026.8,000.0,036.8,030.1,25.5,0000.0,0005.36,0011.02,0004.93
2023-07-23 19:30:00,SystemResetWarning,0833.4,4.99,000.00,028.6,026.8,000.0,036.8,030.2,25.9,0000.0,0005.36,0011.63,0004.95
2023-07-23 19:31:00,SystemResetWarning,0833.4,4.99,000.00,028.5,025.5,000.0,036.7,030.0,23.2,0000.0,0005.38,0011.95,0004.97
2023-07-23 19:32:00,SystemResetWarning,0833.4,5.01,000.00,028.5,024.7,000.0,036.6,029.8,23.2,0000.0,0005.42,0011.97,0004.98
2023-07-23 19:33:00,SystemResetWarning,0833.4,5.01,000.00,028.4,025.1,000.0,036.6,029.8,24.7,0000.0,0005.41,0012.20,0004.97
2023-07-23 19:34:00,SystemResetWarning,0833.4,4.99,000.00,028.4,025.5,000.0,036.7,029.8,23.3,0000.0,0005.39,0012.45,0004.96
2023-07-23 19:35:00,SystemResetWarning,0833.4,5.00,000.00,028.4,025.9,000.0,036.7,029.9,22.8,0000.0,0005.38,0012.55,0004.94
2023-07-23 19:36:00,SystemResetWarning,0833.4,5.01,000.00,028.4,026.4,000.0,036.7,030.0,21.3,0000.0,0005.35,0012.09,0004.91
2023-07-23 19:37:00,SystemResetWarning,0833.4,5.01,000.00,028.5,026.8,000.0,036.7,030.1,20.3,0000.0,0005.33,0011.95,0004.88
2023-07-23 19:38:00,SystemResetWarning,0833.4,4.99,000.00,028.5,027.1,000.0,036.8,030.2,20.7,0000.0,0005.32,0012.17,0004.86
2023-07-23 19:39:00,SystemResetWarning,0833.4,4.99,000.00,028.5,026.4,000.0,036.7,030.2,20.1,0000.0,0005.30,0012.13,0004.85
2023-07-23 19:40:00,SystemResetWarning,0833.4,5.00,000.00,028.5,024.9,000.0,036.6,030.0,20.5,0000.0,0005.28,0011.28,0004.82
2023-07-23 19:41:00,SystemResetWarning,0833.4,5.01,000.00,028.4,024.9,000.0,036.6,029.9,22.9,0000.0,0005.27,0010.88,0004.81
2023-07-23 19:42:00,SystemResetWarning,0833.4,5.01,000.00,028.4,025.3,000.0,036.6,029.8,23.4,0000.0,0005.22,0010.17,0004.77
2023-07-23 19:43:00,SystemResetWarning,0833.4,5.00,000.00,028.4,025.7,000.0,036.6,029.9,24.5,0000.0,0005.18,0010.49,0004.74
2023-07-23 19:44:00,SystemResetWarning,0833.4,5.00,000.00,028.4,026.1,000.0,036.7,030.0,21.9,0000.0,0005.17,0010.71,0004.73
2023-07-23 19:45:00,SystemResetWarning,0833.4,5.00,000.00,028.4,026.6,000.0,036.7,030.1,23.0,0000.0,0005.18,0010.45,0004.72
2023-07-23 19:46:00,SystemResetWarning,0833.4,4.99,000.00,028.5,026.9,000.0,036.7,030.2,22.6,0000.0,0005.20,0011.24,0004.72
2023-07-23 19:47:00,SystemResetWarning,0833.4,5.00,000.00,028.5,027.2,000.0,036.8,030.3,21.2,0000.0,0005.27,0011.75,0004.75
2023-07-23 19:48:00,SystemResetWarning,0833.4,4.98,000.00,028.6,026.6,000.0,036.7,030.2,20.9,0000.0,0005.26,0011.43,0004.76
2023-07-23 19:49:00,SystemResetWarning,0833.4,5.00,000.00,028.5,025.2,000.0,036.6,029.9,21.3,0000.0,0005.29,0010.91,0004.77
2023-07-23 19:50:00,SystemResetWarning,0833.3,5.00,000.00,028.4,025.0,000.0,036.6,029.9,21.2,0000.0,0005.33,0010.86,0004.77
2023-07-23 19:51:00,SystemResetWarning,0833.3,5.01,000.00,028.4,025.4,000.0,036.6,029.8,22.7,0000.0,0005.32,0010.85,0004.77
2023-07-23 19:52:00,SystemResetWarning,0833.3,5.00,000.00,028.4,025.8,000.0,036.7,029.9,22.5,0000.0,0005.33,0010.76,0004.77
2023-07-23 19:53:00,SystemResetWarning,0833.3,4.99,000.00,028.4,026.2,000.0,036.7,030.0,23.6,0000.0,0005.36,0011.26,0004.77
2023-07-23 19:54:00,SystemResetWarning,0833.3,5.00,000.00,028.5,026.6,000.0,036.7,030.2,23.3,0000.0,0005.35,0010.96,0004.78
2023-07-23 19:55:00,SystemResetWarning,0833.4,5.00,000.00,028.5,027.0,000.0,036.7,030.2,24.5,0000.0,0005.34,0010.67,0004.77
2023-07-23 19:56:00,SystemResetWarning,0833.4,4.99,000.00,028.6,027.1,000.0,036.7,030.3,22.8,0000.0,0005.34,0010.57,0004.79
2023-07-23 19:57:00,SystemResetWarning,0833.3,4.99,000.00,028.6,025.8,000.0,036.7,030.1,21.0,0000.0,0005.35,0009.96,0004.80
2023-07-23 19:58:00,SystemResetWarning,0833.3,5.01,000.00,028.5,024.8,000.0,036.6,030.0,21.5,0000.0,0005.31,0009.47,0004.80
2023-07-23 19:59:00,SystemResetWarning,0833.4,5.01,000.00,028.5,025.1,000.0,036.6,029.9,20.3,0000.0,0005.30,0009.34,0004.81
